Location: Kra?nica
(53.4833°N, 14.6167°E)
Time: 16:02:01
(UTC+00:00)

Cosmos 2082 Rocket - Pass Details

Date: 23 May 2024
Orbit: 832 x 853 km, 71.0° (Epoch: 12 June)

Event Time Altitude Azimuth Distance (km) Brightness Sun altitude
Exits shadow 00:07:04 21° 199° (SSW) 1,813 3.3 -14.4°
Maximum altitude 00:10:56 74° 118° (ESE) 893 2.3 -14.2°
Drops below altitude 10° 00:16:39 10° 35° (NE) 2,493 5.9 -14.0°
Sets 00:19:06 0° 33° (NNE) 3,431 7.0 -13.8°
